TimeCDT,TemperatureF,Dew PointF,Humidity,Sea Level PressureIn,VisibilityMPH,Wind Direction,Wind SpeedMPH,Gust SpeedMPH,PrecipitationIn,Events,Conditions,WindDirDegrees,DateUTC
12:53 AM,75.0,53.1,46,29.99,10.0,SE,6.9,-,N/A,,Clear,140,2013-07-13 05:53:00
1:53 AM,73.9,53.1,48,29.99,10.0,SE,5.8,-,N/A,,Clear,140,2013-07-13 06:53:00
2:53 AM,72.0,52.0,49,29.99,10.0,SE,6.9,-,N/A,,Clear,130,2013-07-13 07:53:00
3:53 AM,70.0,52.0,53,30.00,10.0,ESE,6.9,-,N/A,,Clear,120,2013-07-13 08:53:00
4:53 AM,70.0,52.0,53,29.99,10.0,SE,6.9,-,N/A,,Clear,130,2013-07-13 09:53:00
5:53 AM,69.1,52.0,54,30.00,10.0,SSE,9.2,-,N/A,,Clear,150,2013-07-13 10:53:00
6:53 AM,68.0,53.1,59,30.01,10.0,SSE,5.8,-,N/A,,Clear,150,2013-07-13 11:53:00
7:53 AM,73.0,54.0,51,30.01,10.0,SSE,8.1,-,N/A,,Clear,150,2013-07-13 12:53:00
8:53 AM,77.0,55.9,48,30.03,10.0,SSE,9.2,-,N/A,,Clear,150,2013-07-13 13:53:00
9:53 AM,80.1,57.0,45,30.03,10.0,SE,9.2,-,N/A,,Clear,140,2013-07-13 14:53:00
10:53 AM,82.9,57.9,42,30.03,10.0,SSE,6.9,-,N/A,,Clear,150,2013-07-13 15:53:00
11:53 AM,87.1,59.0,39,30.03,10.0,Variable,4.6,-,N/A,,Clear,0,2013-07-13 16:53:00
12:53 PM,88.0,60.1,39,30.01,10.0,Variable,3.5,-,N/A,,Clear,0,2013-07-13 17:53:00
1:53 PM,91.9,62.1,37,29.99,10.0,SW,4.6,-,N/A,,Clear,230,2013-07-13 18:53:00
2:53 PM,91.0,62.1,38,29.97,10.0,Calm,Calm,-,N/A,,Scattered Clouds,0,2013-07-13 19:53:00
3:53 PM,91.9,64.0,39,29.96,10.0,ENE,9.2,-,N/A,,Scattered Clouds,60,2013-07-13 20:53:00
4:53 PM,89.1,64.0,43,29.96,10.0,ENE,6.9,-,N/A,,Clear,70,2013-07-13 21:53:00
5:53 PM,86.0,62.1,44,29.96,10.0,ESE,9.2,-,N/A,,Scattered Clouds,110,2013-07-13 22:53:00
7:53 PM,81.0,59.0,47,29.96,10.0,ESE,9.2,-,N/A,,Clear,110,2013-07-14 00:53:00
8:53 PM,80.1,60.1,50,29.95,10.0,East,6.9,-,N/A,,Clear,100,2013-07-14 01:53:00
9:53 PM,78.1,57.9,50,29.95,10.0,ESE,6.9,-,N/A,,Clear,110,2013-07-14 02:53:00
10:53 PM,78.1,57.0,48,29.97,10.0,East,8.1,-,N/A,,Clear,90,2013-07-14 03:53:00
11:53 PM,75.9,57.9,54,29.98,10.0,East,10.4,-,N/A,,Clear,100,2013-07-14 04:53:00